| time (UTC) | temp F | wind direction | speed MPH | gust MPH | rain 1hr in | rain 24hr in | rain mn in | humidity % | barometer mb |
| 20260502130542 | 75 | 33 | 6.0 | 9.0 | 0.00 | 0.00 | 0.00 | 44 | 1016.1 |
| 20260502123541 | 73 | 46 | 5.0 | 9.0 | 0.00 | 0.00 | 0.00 | 43 | 1016.6 |
| 20260502123101 | 73 | 51 | 5.0 | 8.0 | 0.00 | 0.00 | 0.00 | 43 | 1016.7 |
| 20260502122542 | 73 | 44 | 4.0 | 11.0 | 0.00 | 0.00 | 0.00 | 46 | 1016.7 |
| 20260502122042 | 72 | 59 | 6.0 | 11.0 | 0.00 | 0.00 | 0.00 | 44 | 1016.8 |
| 20260502121601 | 72 | 306 | 7.0 | 11.0 | 0.00 | 0.00 | 0.00 | 46 | 1017.0 |
| 20260502121041 | 72 | 292 | 5.0 | 11.0 | 0.00 | 0.00 | 0.00 | 43 | 1017.0 |
| 20260502120542 | 72 | 350 | 7.0 | 11.0 | 0.00 | 0.00 | 0.00 | 43 | 1017.1 |
| 20260502115541 | 71 | 314 | 6.0 | 11.0 | 0.00 | 0.00 | 0.00 | 46 | 1017.3 |
| 20260502115041 | 71 | 283 | 5.0 | 11.0 | 0.00 | 0.00 | 0.00 | 46 | 1017.5 |
| 20260502114558 | 71 | 255 | 2.0 | 10.0 | 0.00 | 0.00 | 0.00 | 47 | 1017.5 |
| 20260502114043 | 70 | 240 | 5.0 | 11.0 | 0.00 | 0.00 | 0.00 | 46 | 1017.7 |
| 20260502113541 | 70 | 264 | 6.0 | 11.0 | 0.00 | 0.00 | 0.00 | 49 | 1017.7 |
| 20260502113052 | 70 | 269 | 6.0 | 11.0 | 0.00 | 0.00 | 0.00 | 48 | 1017.9 |
| 20260502112542 | 70 | 277 | 5.0 | 10.0 | 0.00 | 0.00 | 0.00 | 49 | 1018.1 |
| 20260502112042 | 69 | 240 | 5.0 | 11.0 | 0.00 | 0.00 | 0.00 | 48 | 1018.3 |
| 20260502111552 | 69 | 227 | 4.0 | 11.0 | 0.00 | 0.00 | 0.00 | 48 | 1018.3 |
| 20260502111042 | 69 | 281 | 6.0 | 11.0 | 0.00 | 0.00 | 0.00 | 47 | 1018.5 |
| 20260502110542 | 69 | 60 | 3.0 | 7.0 | 0.00 | 0.00 | 0.00 | 49 | 1018.6 |
| 20260502105545 | 68 | 252 | 2.0 | 9.0 | 0.00 | 0.00 | 0.00 | 52 | 1018.9 |
| 20260502105041 | 68 | 117 | 5.0 | 9.0 | 0.00 | 0.00 | 0.00 | 51 | 1019.0 |
| 20260502104557 | 68 | 278 | 3.0 | 11.0 | 0.00 | 0.00 | 0.00 | 52 | 1019.0 |
| 20260502104041 | 68 | 233 | 6.0 | 11.0 | 0.00 | 0.00 | 0.00 | 52 | 1019.2 |
| 20260502103542 | 68 | 273 | 7.0 | 11.0 | 0.00 | 0.00 | 0.00 | 52 | 1019.2 |
| 20260502103101 | 67 | 297 | 4.0 | 10.0 | 0.00 | 0.00 | 0.00 | 55 | 1019.4 |
| 20260502102545 | 66 | 260 | 5.0 | 10.0 | 0.00 | 0.00 | 0.00 | 52 | 1019.5 |
| 20260502102042 | 66 | 247 | 6.0 | 10.0 | 0.00 | 0.00 | 0.00 | 53 | 1019.6 |
| 20260502101622 | 66 | 271 | 3.0 | 9.0 | 0.00 | 0.00 | 0.00 | 54 | 1019.8 |
| 20260502101041 | 66 | 248 | 2.0 | 9.0 | 0.00 | 0.00 | 0.00 | 54 | 1019.9 |
| 20260502100544 | 66 | 243 | 4.0 | 9.0 | 0.00 | 0.00 | 0.00 | 55 | 1020.0 |
| 20260502100116 | 65 | 30 | 5.0 | 9.0 | 0.00 | 0.00 | 0.00 | 54 | 1020.2 |
| 20260502091042 | 63 | 337 | 4.0 | 7.0 | 0.00 | 0.00 | 0.00 | 55 | 1021.3 |
| 20260502090541 | 62 | 281 | 3.0 | 5.0 | 0.00 | 0.00 | 0.00 | 53 | 1021.3 |
| 20260502071042 | 57 | 0 | 0.0 | 5.0 | 0.00 | 0.00 | 0.00 | 64 | 1022.9 |
| 20260502070541 | 57 | 250 | 2.0 | 5.0 | 0.00 | 0.00 | 0.00 | 62 | 1023.0 |
| 20260502070055 | 57 | 0 | 0.0 | 3.0 | 0.00 | 0.00 | 0.00 | 64 | 1023.0 |
| 20260502065542 | 56 | 44 | 0.0 | 3.0 | 0.00 | 0.00 | 0.00 | 65 | 1023.1 |
| 20260502065041 | 56 | 33 | 1.0 | 4.0 | 0.00 | 0.00 | 0.00 | 65 | 1023.1 |
| 20260502064552 | 55 | 0 | 1.0 | 4.0 | 0.00 | 0.00 | 0.00 | 66 | 1023.2 |
| 20260502064041 | 55 | 239 | 1.0 | 4.0 | 0.00 | 0.00 | 0.00 | 67 | 1023.2 |
| 20260502063541 | 55 | 331 | 1.0 | 4.0 | 0.00 | 0.00 | 0.00 | 66 | 1023.3 |
| 20260502063054 | 55 | 26 | 2.0 | 3.0 | 0.00 | 0.00 | 0.00 | 66 | 1023.3 |
| 20260502062543 | 56 | 359 | 1.0 | 3.0 | 0.00 | 0.00 | 0.00 | 67 | 1023.4 |
| 20260502062041 | 55 | 42 | 0.0 | 2.0 | 0.00 | 0.00 | 0.00 | 68 | 1023.5 |
| 20260502061554 | 55 | 50 | 0.0 | 2.0 | 0.00 | 0.00 | 0.00 | 73 | 1023.5 |
| 20260502061043 | 55 | 58 | 0.0 | 1.0 | 0.00 | 0.00 | 0.00 | 72 | 1023.5 |
| 20260502060541 | 54 | 0 | 0.0 | 1.0 | 0.00 | 0.00 | 0.00 | 74 | 1023.5 |
| 20260502060057 | 54 | 0 | 0.0 | 1.0 | 0.00 | 0.00 | 0.00 | 76 | 1023.6 |
| 20260502055542 | 53 | 0 | 0.0 | 1.0 | 0.00 | 0.00 | 0.00 | 77 | 1023.7 |
| 20260502055042 | 53 | 0 | 0.0 | 1.0 | 0.00 | 0.00 | 0.00 | 76 | 1023.7 |
| 20260502054558 | 53 | 0 | 0.0 | 1.0 | 0.00 | 0.00 | 0.00 | 76 | 1023.8 |
| 20260502054041 | 52 | 0 | 0.0 | 1.0 | 0.00 | 0.00 | 0.00 | 78 | 1023.7 |
| 20260502053541 | 51 | 0 | 0.0 | 1.0 | 0.00 | 0.00 | 0.00 | 81 | 1023.7 |
| 20260502053109 | 49 | 0 | 0.0 | 1.0 | 0.00 | 0.00 | 0.00 | 84 | 1023.7 |
| 20260502052541 | 47 | 0 | 0.0 | 0.0 | 0.00 | 0.00 | 0.00 | 84 | 1023.7 |
| 20260502052041 | 47 | 0 | 0.0 | 2.0 | 0.00 | 0.00 | 0.00 | 84 | 1023.7 |
| 20260502051555 | 47 | 0 | 0.0 | 2.0 | 0.00 | 0.00 | 0.00 | 85 | 1023.8 |
| 20260502051044 | 47 | 28 | 1.0 | 2.0 | 0.00 | 0.00 | 0.00 | 83 | 1023.7 |
| 20260502050541 | 47 | 0 | 0.0 | 0.0 | 0.00 | 0.00 | 0.00 | 84 | 1023.7 |
| 20260502050053 | 46 | 0 | 0.0 | 0.0 | 0.00 | 0.00 | 0.00 | 84 | 1023.6 |
| 20260502045541 | 45 | 0 | 0.0 | 0.0 | 0.00 | 0.00 | 0.00 | 85 | 1023.7 |
| 20260502045041 | 44 | 0 | 0.0 | 1.0 | 0.00 | 0.00 | 0.00 | 87 | 1023.6 |
| 20260502044549 | 43 | 0 | 0.0 | 1.0 | 0.00 | 0.00 | 0.00 | 87 | 1023.5 |
| 20260502044042 | 42 | 39 | 0.0 | 1.0 | 0.00 | 0.00 | 0.00 | 87 | 1023.6 |
| 20260502043541 | 42 | 0 | 0.0 | 2.0 | 0.00 | 0.00 | 0.00 | 86 | 1023.5 |
| 20260502043053 | 43 | 0 | 0.0 | 2.0 | 0.00 | 0.00 | 0.00 | 84 | 1023.5 |
| 20260502042542 | 44 | 0 | 0.0 | 0.0 | 0.00 | 0.00 | 0.00 | 87 | 1023.4 |
| 20260502042042 | 43 | 0 | 0.0 | 0.0 | 0.00 | 0.00 | 0.00 | 87 | 1023.5 |
| 20260502041549 | 43 | 0 | 0.0 | 0.0 | 0.00 | 0.00 | 0.00 | 86 | 1023.5 |
| 20260502041041 | 43 | 0 | 0.0 | 3.0 | 0.00 | 0.00 | 0.00 | 86 | 1023.5 |
| 20260502040541 | 44 | 0 | 1.0 | 3.0 | 0.00 | 0.00 | 0.00 | 84 | 1023.4 |
| 20260502040051 | 44 | 0 | 0.0 | 0.0 | 0.00 | 0.00 | 0.00 | 84 | 1023.4 |
| 20260502035541 | 44 | 0 | 0.0 | 0.0 | 0.00 | 0.00 | 0.00 | 85 | 1023.4 |
| 20260502035043 | 44 | 0 | 0.0 | 0.0 | 0.00 | 0.00 | 0.00 | 85 | 1023.3 |
| 20260502034554 | 44 | 0 | 0.0 | 0.0 | 0.00 | 0.00 | 0.00 | 85 | 1023.3 |
| 20260502034041 | 44 | 0 | 0.0 | 0.0 | 0.00 | 0.00 | 0.00 | 85 | 1023.2 |
| 20260502033544 | 44 | 0 | 0.0 | 0.0 | 0.00 | 0.00 | 0.00 | 84 | 1023.2 |
| 20260502033058 | 44 | 0 | 0.0 | 1.0 | 0.00 | 0.00 | 0.00 | 84 | 1023.1 |
| 20260502032540 | 44 | 0 | 0.0 | 1.0 | 0.00 | 0.00 | 0.00 | 83 | 1023.1 |
| 20260502032043 | 45 | 0 | 0.0 | 3.0 | 0.00 | 0.00 | 0.00 | 81 | 1023.1 |
| 20260502031556 | 46 | 92 | 0.0 | 3.0 | 0.00 | 0.00 | 0.00 | 79 | 1023.1 |
| 20260502031042 | 47 | 94 | 1.0 | 3.0 | 0.00 | 0.00 | 0.00 | 78 | 1023.1 |
| 20260502030542 | 47 | 90 | 0.0 | 2.0 | 0.00 | 0.00 | 0.00 | 79 | 1023.0 |
| 20260502030058 | 47 | 0 | 0.0 | 4.0 | 0.00 | 0.00 | 0.00 | 80 | 1023.1 |
| 20260502025541 | 47 | 0 | 1.0 | 4.0 | 0.00 | 0.00 | 0.00 | 79 | 1023.0 |
| 20260502025041 | 47 | 104 | 3.0 | 4.0 | 0.00 | 0.00 | 0.00 | 80 | 1023.0 |
| 20260502024553 | 45 | 91 | 3.0 | 3.0 | 0.00 | 0.00 | 0.00 | 85 | 1023.0 |
| 20260502024045 | 44 | 90 | 1.0 | 1.0 | 0.00 | 0.00 | 0.00 | 85 | 1023.1 |
| 20260502023541 | 45 | 0 | 0.0 | 1.0 | 0.00 | 0.00 | 0.00 | 82 | 1023.1 |
| 20260502023109 | 46 | 0 | 0.0 | 1.0 | 0.00 | 0.00 | 0.00 | 83 | 1022.9 |
| 20260502022542 | 46 | 60 | 0.0 | 1.0 | 0.00 | 0.00 | 0.00 | 82 | 1022.9 |
| 20260502022040 | 46 | 0 | 0.0 | 1.0 | 0.00 | 0.00 | 0.00 | 81 | 1022.9 |
| 20260502021549 | 46 | 0 | 0.0 | 1.0 | 0.00 | 0.00 | 0.00 | 81 | 1022.9 |
| 20260502021041 | 46 | 0 | 0.0 | 1.0 | 0.00 | 0.00 | 0.00 | 80 | 1022.9 |
| 20260502020543 | 47 | 60 | 0.0 | 0.0 | 0.00 | 0.00 | 0.00 | 80 | 1022.9 |
| 20260502020049 | 46 | 0 | 0.0 | 1.0 | 0.00 | 0.00 | 0.00 | 81 | 1022.9 |
| 20260502015543 | 46 | 0 | 0.0 | 1.0 | 0.00 | 0.00 | 0.00 | 80 | 1022.8 |
| 20260502015041 | 46 | 59 | 0.0 | 0.0 | 0.00 | 0.00 | 0.00 | 81 | 1022.9 |
| 20260502014552 | 46 | 0 | 0.0 | 0.0 | 0.00 | 0.00 | 0.00 | 80 | 1022.8 |
| 20260502014042 | 47 | 0 | 0.0 | 0.0 | 0.00 | 0.00 | 0.00 | 80 | 1022.9 |
| 20260502013542 | 47 | 0 | 0.0 | 1.0 | 0.00 | 0.00 | 0.00 | 80 | 1022.9 |
| 20260502013050 | 47 | 0 | 0.0 | 1.0 | 0.00 | 0.00 | 0.00 | 78 | 1022.9 |
| 20260502012542 | 48 | 0 | 0.0 | 1.0 | 0.00 | 0.00 | 0.00 | 77 | 1022.9 |
| 20260502012041 | 48 | 58 | 1.0 | 1.0 | 0.00 | 0.00 | 0.00 | 77 | 1022.9 |
| 20260502011555 | 48 | 0 | 0.0 | 1.0 | 0.00 | 0.00 | 0.00 | 76 | 1022.9 |
| 20260502011040 | 48 | 0 | 0.0 | 1.0 | 0.00 | 0.00 | 0.00 | 77 | 1022.9 |
| 20260502010545 | 48 | 83 | 0.0 | 1.0 | 0.00 | 0.00 | 0.00 | 77 | 1022.9 |
| 20260502010048 | 48 | 0 | 0.0 | 1.0 | 0.00 | 0.00 | 0.00 | 77 | 1022.9 |
| 20260502005542 | 48 | 0 | 0.0 | 1.0 | 0.00 | 0.00 | 0.00 | 77 | 1022.9 |
| 20260502005041 | 49 | 0 | 0.0 | 1.0 | 0.00 | 0.00 | 0.00 | 77 | 1022.8 |
| 20260502004607 | 48 | 84 | 0.0 | 1.0 | 0.00 | 0.00 | 0.00 | 78 | 1022.8 |
| 20260502004041 | 48 | 0 | 0.0 | 1.0 | 0.00 | 0.00 | 0.00 | 76 | 1022.8 |
| 20260502003543 | 49 | 0 | 0.0 | 0.0 | 0.00 | 0.00 | 0.00 | 76 | 1022.8 |
| 20260502003044 | 49 | 0 | 0.0 | 0.0 | 0.00 | 0.00 | 0.00 | 75 | 1022.8 |
| 20260502002545 | 49 | 0 | 0.0 | 1.0 | 0.00 | 0.00 | 0.00 | 75 | 1022.8 |
| 20260502002041 | 49 | 0 | 0.0 | 1.0 | 0.00 | 0.00 | 0.00 | 75 | 1022.7 |
| 20260502001553 | 49 | 84 | 0.0 | 1.0 | 0.00 | 0.00 | 0.00 | 73 | 1022.7 |
| 20260502001048 | 49 | 0 | 0.0 | 2.0 | 0.00 | 0.00 | 0.00 | 74 | 1022.7 |
| 20260502000541 | 50 | 0 | 0.0 | 3.0 | 0.00 | 0.00 | 0.00 | 74 | 1022.6 |
| 20260502000054 | 50 | 84 | 0.0 | 3.0 | 0.00 | 0.00 | 0.00 | 73 | 1022.6 |
| 20260501235544 | 50 | 84 | 2.0 | 3.0 | 0.00 | 0.00 | 0.00 | 74 | 1022.7 |
| 20260501235041 | 49 | 70 | 0.0 | 1.0 | 0.00 | 0.00 | 0.00 | 76 | 1022.7 |
| 20260501234551 | 50 | 0 | 0.0 | 0.0 | 0.00 | 0.00 | 0.00 | 73 | 1022.7 |
| 20260501234041 | 51 | 0 | 0.0 | 0.0 | 0.00 | 0.00 | 0.00 | 70 | 1022.7 |
| 20260501233541 | 51 | 0 | 0.0 | 1.0 | 0.00 | 0.00 | 0.00 | 69 | 1022.7 |
| 20260501233055 | 51 | 0 | 0.0 | 1.0 | 0.00 | 0.00 | 0.00 | 68 | 1022.6 |
| 20260501232541 | 51 | 69 | 0.0 | 2.0 | 0.00 | 0.00 | 0.00 | 68 | 1022.6 |
| 20260501232041 | 51 | 0 | 0.0 | 2.0 | 0.00 | 0.00 | 0.00 | 70 | 1022.6 |
| 20260501231601 | 51 | 63 | 0.0 | 1.0 | 0.00 | 0.00 | 0.00 | 71 | 1022.6 |
| 20260501231041 | 52 | 54 | 0.0 | 3.0 | 0.00 | 0.00 | 0.00 | 70 | 1022.5 |
| 20260501230541 | 53 | 0 | 0.0 | 4.0 | 0.00 | 0.00 | 0.00 | 65 | 1022.5 |
| 20260501230049 | 55 | 11 | 0.0 | 4.0 | 0.00 | 0.00 | 0.00 | 63 | 1022.4 |
| 20260501225544 | 54 | 96 | 2.0 | 4.0 | 0.00 | 0.00 | 0.00 | 62 | 1022.3 |
| 20260501225040 | 53 | 96 | 2.0 | 4.0 | 0.00 | 0.00 | 0.00 | 65 | 1022.4 |
| 20260501224555 | 53 | 96 | 1.0 | 3.0 | 0.00 | 0.00 | 0.00 | 66 | 1022.3 |
| 20260501224040 | 53 | 70 | 0.0 | 1.0 | 0.00 | 0.00 | 0.00 | 64 | 1022.4 |
| 20260501223540 | 54 | 0 | 0.0 | 1.0 | 0.00 | 0.00 | 0.00 | 62 | 1022.4 |
| 20260501223108 | 54 | 69 | 0.0 | 2.0 | 0.00 | 0.00 | 0.00 | 63 | 1022.3 |
| 20260501222542 | 55 | 0 | 0.0 | 4.0 | 0.00 | 0.00 | 0.00 | 61 | 1022.3 |
| 20260501222042 | 55 | 37 | 1.0 | 4.0 | 0.00 | 0.00 | 0.00 | 60 | 1022.2 |
| 20260501221551 | 55 | 70 | 0.0 | 3.0 | 0.00 | 0.00 | 0.00 | 60 | 1022.2 |
| 20260501221041 | 55 | 51 | 1.0 | 2.0 | 0.00 | 0.00 | 0.00 | 61 | 1022.1 |
| 20260501220541 | 56 | 0 | 0.0 | 6.0 | 0.00 | 0.00 | 0.00 | 59 | 1021.9 |
| 20260501220051 | 56 | 0 | 2.0 | 6.0 | 0.00 | 0.00 | 0.00 | 57 | 1021.9 |
| 20260501215541 | 56 | 112 | 4.0 | 6.0 | 0.00 | 0.00 | 0.00 | 58 | 1021.8 |
| 20260501215045 | 56 | 93 | 1.0 | 4.0 | 0.00 | 0.00 | 0.00 | 60 | 1021.8 |
| 20260501214550 | 56 | 56 | 0.0 | 6.0 | 0.00 | 0.00 | 0.00 | 57 | 1021.7 |
| 20260501214044 | 57 | 82 | 2.0 | 10.0 | 0.00 | 0.00 | 0.00 | 57 | 1021.7 |
| 20260501213544 | 58 | 86 | 4.0 | 10.0 | 0.00 | 0.00 | 0.00 | 54 | 1021.6 |
| 20260501213110 | 58 | 42 | 5.0 | 10.0 | 0.00 | 0.00 | 0.00 | 54 | 1021.6 |
| 20260501212545 | 58 | 99 | 3.0 | 7.0 | 0.00 | 0.00 | 0.00 | 54 | 1021.6 |
| 20260501212045 | 58 | 79 | 2.0 | 7.0 | 0.00 | 0.00 | 0.00 | 54 | 1021.5 |
| 20260501211553 | 58 | 122 | 4.0 | 7.0 | 0.00 | 0.00 | 0.00 | 54 | 1021.5 |
| 20260501211042 | 57 | 83 | 1.0 | 10.0 | 0.00 | 0.00 | 0.00 | 55 | 1021.4 |
| 20260501210543 | 58 | 70 | 3.0 | 10.0 | 0.00 | 0.00 | 0.00 | 55 | 1021.4 |
| 20260501210055 | 57 | 93 | 4.0 | 9.0 | 0.00 | 0.00 | 0.00 | 55 | 1021.4 |
| 20260501205542 | 57 | 85 | 3.0 | 6.0 | 0.00 | 0.00 | 0.00 | 56 | 1021.3 |
| 20260501205042 | 56 | 68 | 0.0 | 6.0 | 0.00 | 0.00 | 0.00 | 60 | 1021.3 |
| 20260501204548 | 56 | 80 | 0.0 | 4.0 | 0.00 | 0.00 | 0.00 | 59 | 1021.1 |
| 20260501204041 | 56 | 47 | 2.0 | 4.0 | 0.00 | 0.00 | 0.00 | 58 | 1021.1 |
| 20260501203541 | 57 | 71 | 0.0 | 3.0 | 0.00 | 0.00 | 0.00 | 57 | 1021.0 |
| 20260501203101 | 57 | 69 | 0.0 | 3.0 | 0.00 | 0.00 | 0.00 | 57 | 1021.0 |
| 20260501202541 | 57 | 62 | 2.0 | 3.0 | 0.00 | 0.00 | 0.00 | 57 | 1020.9 |
| 20260501202041 | 57 | 57 | 0.0 | 3.0 | 0.00 | 0.00 | 0.00 | 56 | 1020.9 |
| 20260501201547 | 57 | 78 | 0.0 | 3.0 | 0.00 | 0.00 | 0.00 | 56 | 1020.7 |
| 20260501201047 | 57 | 0 | 0.0 | 2.0 | 0.00 | 0.00 | 0.00 | 56 | 1020.7 |
| 20260501200547 | 58 | 65 | 0.0 | 2.0 | 0.00 | 0.00 | 0.00 | 56 | 1020.6 |
| 20260501200052 | 58 | 64 | 0.0 | 4.0 | 0.00 | 0.00 | 0.00 | 55 | 1020.5 |
| 20260501195542 | 58 | 60 | 1.0 | 4.0 | 0.00 | 0.00 | 0.00 | 55 | 1020.5 |
| 20260501195044 | 58 | 61 | 0.0 | 4.0 | 0.00 | 0.00 | 0.00 | 56 | 1020.4 |
| 20260501194551 | 58 | 75 | 0.0 | 3.0 | 0.00 | 0.00 | 0.00 | 56 | 1020.2 |
| 20260501194042 | 58 | 75 | 0.0 | 3.0 | 0.00 | 0.00 | 0.00 | 54 | 1020.1 |
| 20260501193545 | 58 | 0 | 1.0 | 3.0 | 0.00 | 0.00 | 0.00 | 56 | 1020.1 |
| 20260501193047 | 58 | 347 | 0.0 | 2.0 | 0.00 | 0.00 | 0.00 | 56 | 1020.1 |
| 20260501192541 | 58 | 78 | 1.0 | 3.0 | 0.00 | 0.00 | 0.00 | 55 | 1019.9 |
| 20260501192041 | 59 | 65 | 0.0 | 3.0 | 0.00 | 0.00 | 0.00 | 55 | 1019.8 |
| 20260501191547 | 59 | 60 | 0.0 | 3.0 | 0.00 | 0.00 | 0.00 | 54 | 1019.7 |
| 20260501191041 | 60 | 0 | 1.0 | 3.0 | 0.00 | 0.00 | 0.00 | 52 | 1019.6 |
| 20260501190541 | 60 | 0 | 1.0 | 3.0 | 0.00 | 0.00 | 0.00 | 54 | 1019.5 |
| 20260501190049 | 60 | 77 | 0.0 | 5.0 | 0.00 | 0.00 | 0.00 | 52 | 1019.4 |
| 20260501185541 | 61 | 63 | 1.0 | 5.0 | 0.00 | 0.00 | 0.00 | 52 | 1019.2 |
| 20260501185044 | 61 | 84 | 1.0 | 5.0 | 0.00 | 0.00 | 0.00 | 51 | 1018.9 |
| 20260501184605 | 61 | 0 | 2.0 | 9.0 | 0.00 | 0.00 | 0.00 | 51 | 1018.9 |
| 20260501184042 | 62 | 56 | 0.0 | 11.0 | 0.00 | 0.00 | 0.00 | 49 | 1018.7 |
| 20260501183545 | 63 | 311 | 8.0 | 11.0 | 0.00 | 0.00 | 0.00 | 46 | 1018.6 |
| 20260501183057 | 62 | 43 | 1.0 | 5.0 | 0.00 | 0.00 | 0.00 | 49 | 1018.5 |
| 20260501182546 | 62 | 96 | 3.0 | 5.0 | 0.00 | 0.00 | 0.00 | 48 | 1018.4 |
| 20260501182045 | 62 | 143 | 0.0 | 4.0 | 0.00 | 0.00 | 0.00 | 49 | 1018.4 |
| 20260501181554 | 62 | 83 | 1.0 | 8.0 | 0.00 | 0.00 | 0.00 | 51 | 1018.2 |
| 20260501181041 | 63 | 89 | 1.0 | 8.0 | 0.00 | 0.00 | 0.00 | 52 | 1018.2 |
| 20260501180541 | 64 | 36 | 5.0 | 8.0 | 0.00 | 0.00 | 0.00 | 46 | 1018.1 |
| 20260501180058 | 63 | 282 | 2.0 | 5.0 | 0.00 | 0.00 | 0.00 | 47 | 1018.0 |
| 20260501175542 | 64 | 55 | 3.0 | 8.0 | 0.00 | 0.00 | 0.00 | 48 | 1017.9 |
| 20260501175041 | 65 | 16 | 3.0 | 11.0 | 0.00 | 0.00 | 0.00 | 45 | 1017.7 |
| 20260501174601 | 65 | 273 | 6.0 | 13.0 | 0.00 | 0.00 | 0.00 | 45 | 1017.6 |
| 20260501174041 | 65 | 252 | 8.0 | 13.0 | 0.00 | 0.00 | 0.00 | 44 | 1017.5 |
| 20260501173541 | 65 | 4 | 1.0 | 12.0 | 0.00 | 0.00 | 0.00 | 46 | 1017.4 |
| 20260501173111 | 65 | 40 | 5.0 | 12.0 | 0.00 | 0.00 | 0.00 | 47 | 1017.4 |
| 20260501172547 | 66 | 291 | 8.0 | 12.0 | 0.00 | 0.00 | 0.00 | 43 | 1017.3 |
| 20260501172044 | 66 | 268 | 6.0 | 11.0 | 0.00 | 0.00 | 0.00 | 42 | 1017.3 |
| 20260501171558 | 66 | 297 | 4.0 | 9.0 | 0.00 | 0.00 | 0.00 | 43 | 1017.2 |
| 20260501171044 | 67 | 302 | 4.0 | 11.0 | 0.00 | 0.00 | 0.00 | 42 | 1017.1 |
| 20260501170543 | 67 | 349 | 4.0 | 11.0 | 0.00 | 0.00 | 0.00 | 43 | 1017.1 |
| 20260501170048 | 67 | 54 | 4.0 | 11.0 | 0.00 | 0.00 | 0.00 | 42 | 1017.0 |
| 20260501165544 | 68 | 60 | 2.0 | 10.0 | 0.00 | 0.00 | 0.00 | 42 | 1016.9 |
| 20260501165046 | 68 | 53 | 0.0 | 11.0 | 0.00 | 0.00 | 0.00 | 43 | 1017.0 |
| 20260501164600 | 68 | 89 | 5.0 | 13.0 | 0.00 | 0.00 | 0.00 | 43 | 1016.9 |
| 20260501164041 | 68 | 53 | 6.0 | 13.0 | 0.00 | 0.00 | 0.00 | 42 | 1016.9 |
| 20260501163541 | 68 | 3 | 5.0 | 15.0 | 0.00 | 0.00 | 0.00 | 41 | 1016.9 |
| 20260501163053 | 69 | 312 | 3.0 | 18.0 | 0.00 | 0.00 | 0.00 | 40 | 1016.9 |
| 20260501162542 | 69 | 65 | 9.0 | 18.0 | 0.00 | 0.00 | 0.00 | 40 | 1016.8 |
| 20260501162040 | 69 | 267 | 6.0 | 14.0 | 0.00 | 0.00 | 0.00 | 40 | 1016.7 |
| 20260501161549 | 70 | 15 | 8.0 | 18.0 | 0.00 | 0.00 | 0.00 | 39 | 1016.7 |
| 20260501161041 | 70 | 69 | 7.0 | 18.0 | 0.00 | 0.00 | 0.00 | 39 | 1016.7 |
| 20260501160541 | 70 | 23 | 10.0 | 19.0 | 0.00 | 0.00 | 0.00 | 39 | 1016.7 |
| 20260501160051 | 71 | 355 | 11.0 | 19.0 | 0.00 | 0.00 | 0.00 | 38 | 1016.6 |
| 20260501155542 | 72 | 21 | 9.0 | 21.0 | 0.00 | 0.00 | 0.00 | 39 | 1016.7 |
| 20260501155042 | 72 | 6 | 9.0 | 21.0 | 0.00 | 0.00 | 0.00 | 39 | 1016.6 |
| 20260501154552 | 72 | 51 | 11.0 | 19.0 | 0.00 | 0.00 | 0.00 | 38 | 1016.6 |
| 20260501154044 | 72 | 341 | 9.0 | 19.0 | 0.00 | 0.00 | 0.00 | 38 | 1016.6 |
| 20260501153542 | 72 | 41 | 12.0 | 24.0 | 0.00 | 0.00 | 0.00 | 39 | 1016.7 |
| 20260501153052 | 72 | 5 | 9.0 | 24.0 | 0.00 | 0.00 | 0.00 | 38 | 1016.7 |
| 20260501152542 | 72 | 326 | 11.0 | 24.0 | 0.00 | 0.00 | 0.00 | 37 | 1016.6 |
| 20260501152044 | 72 | 353 | 9.0 | 22.0 | 0.00 | 0.00 | 0.00 | 38 | 1016.7 |
| 20260501151553 | 72 | 360 | 11.0 | 22.0 | 0.00 | 0.00 | 0.00 | 39 | 1016.7 |
| 20260501151041 | 72 | 330 | 10.0 | 22.0 | 0.00 | 0.00 | 0.00 | 38 | 1016.7 |
| 20260501150541 | 72 | 77 | 9.0 | 17.0 | 0.00 | 0.00 | 0.00 | 39 | 1016.7 |
| 20260501150052 | 72 | 306 | 9.0 | 20.0 | 0.00 | 0.00 | 0.00 | 39 | 1016.7 |